TimeCST,TemperatureF,Dew PointF,Humidity,Sea Level PressureIn,VisibilityMPH,Wind Direction,Wind SpeedMPH,Gust SpeedMPH,PrecipitationIn,Events,Conditions,WindDirDegrees,DateUTC
12:53 AM,39.9,19.0,43,30.08,10.0,South,12.7,-,N/A,,Clear,190,2013-11-19 06:53:00
1:53 AM,42.1,19.9,41,30.04,10.0,South,12.7,-,N/A,,Clear,180,2013-11-19 07:53:00
2:53 AM,37.0,19.9,50,30.05,10.0,South,10.4,-,N/A,,Clear,190,2013-11-19 08:53:00
3:53 AM,37.0,19.9,50,30.02,10.0,South,10.4,-,N/A,,Clear,190,2013-11-19 09:53:00
4:53 AM,36.0,19.9,52,30.01,10.0,South,8.1,-,N/A,,Clear,190,2013-11-19 10:53:00
5:53 AM,30.9,19.9,64,30.01,10.0,SW,6.9,-,N/A,,Clear,230,2013-11-19 11:53:00
6:53 AM,30.0,21.0,69,29.99,10.0,SSW,11.5,-,N/A,,Clear,200,2013-11-19 12:53:00
7:53 AM,30.0,21.0,69,29.99,10.0,SSW,9.2,-,N/A,,Clear,210,2013-11-19 13:53:00
8:53 AM,41.0,28.0,60,29.96,10.0,SW,11.5,-,N/A,,Clear,220,2013-11-19 14:53:00
9:53 AM,46.9,28.9,50,29.95,10.0,SW,13.8,-,N/A,,Clear,220,2013-11-19 15:53:00
10:53 AM,55.0,28.9,37,29.89,10.0,SSW,19.6,27.6,N/A,,Clear,210,2013-11-19 16:53:00
11:53 AM,60.1,28.9,31,29.83,10.0,SW,20.7,26.5,N/A,,Clear,220,2013-11-19 17:53:00
12:53 PM,62.1,28.9,29,29.80,10.0,SW,23.0,29.9,N/A,,Clear,220,2013-11-19 18:53:00
2:53 PM,70.0,28.9,22,29.79,10.0,SW,27.6,35.7,N/A,,Clear,230,2013-11-19 20:53:00
3:53 PM,70.0,30.0,23,29.78,10.0,SW,17.3,26.5,N/A,,Clear,220,2013-11-19 21:53:00
4:53 PM,66.9,30.9,26,29.78,10.0,SSW,18.4,-,N/A,,Clear,210,2013-11-19 22:53:00
5:53 PM,63.0,32.0,31,29.78,10.0,SSW,11.5,-,N/A,,Clear,200,2013-11-19 23:53:00
6:53 PM,60.1,34.0,38,29.79,10.0,SSW,15.0,-,N/A,,Clear,200,2013-11-20 00:53:00
7:53 PM,59.0,34.0,39,29.79,10.0,South,12.7,-,N/A,,Clear,190,2013-11-20 01:53:00
8:53 PM,55.0,33.1,43,29.80,10.0,South,10.4,-,N/A,,Clear,180,2013-11-20 02:53:00
9:53 PM,55.9,35.1,45,29.79,10.0,SSW,12.7,-,N/A,,Clear,200,2013-11-20 03:53:00
10:53 PM,57.0,30.9,37,29.78,10.0,SW,16.1,-,N/A,,Clear,220,2013-11-20 04:53:00
11:53 PM,57.9,28.9,33,29.79,10.0,WSW,16.1,26.5,N/A,,Clear,240,2013-11-20 05:53:00